Location: *
(29.1167°S, 130.0000°E)
Time: 09:42:49
(UTC+00:00)

Cosmos 2251 Rocket - Pass Details

Date: 21 July 2019
Orbit: 765 x 792 km, 74.0° (Epoch: 25 August)

Event Time Altitude Azimuth Distance (km) Brightness Sun altitude
Rises 09:24:45 0° 193° (SSW) 3,303 6.7 -9.5°
Reaches altitude 10° 09:27:11 10° 190° (S) 2,364 6.0 -10.0°
Maximum altitude 09:32:33 68° 106° (ESE) 842 3.5 -11.1°
Drops below altitude 10° 09:37:47 10° 23° (NNE) 2,317 5.9 -12.2°
Sets 09:40:09 0° 21° (NNE) 3,232 6.7 -12.7°
